| time (UTC) | temp F | wind direction | speed MPH | gust MPH | rain 1hr in | rain 24hr in | rain mn in | humidity % | barometer mb |
| 20260903175517 | 85 | 214 | 8.0 | 17.0 | 0.00 | 0.01 | 0.00 | 72 | 1013.6 |
| 20260903175019 | 85 | 227 | 4.0 | 16.0 | 0.00 | 0.01 | 0.00 | 73 | 1013.8 |
| 20260903174537 | 85 | 147 | 7.0 | 16.0 | 0.00 | 0.01 | 0.00 | 74 | 1013.8 |
| 20260903174017 | 84 | 201 | 3.0 | 14.0 | 0.00 | 0.01 | 0.00 | 76 | 1013.7 |
| 20260903173520 | 84 | 202 | 5.0 | 14.0 | 0.00 | 0.01 | 0.00 | 76 | 1013.7 |
| 20260903173037 | 84 | 194 | 6.0 | 12.0 | 0.00 | 0.01 | 0.00 | 75 | 1013.8 |
| 20260903172518 | 84 | 208 | 5.0 | 11.0 | 0.00 | 0.01 | 0.00 | 75 | 1013.8 |
| 20260903172020 | 84 | 237 | 4.0 | 12.0 | 0.00 | 0.01 | 0.00 | 76 | 1013.8 |
| 20260903171555 | 84 | 212 | 3.0 | 12.0 | 0.00 | 0.01 | 0.00 | 76 | 1013.8 |
| 20260903171017 | 84 | 161 | 3.0 | 13.0 | 0.00 | 0.01 | 0.00 | 76 | 1014.0 |
| 20260903170517 | 84 | 194 | 4.0 | 14.0 | 0.00 | 0.01 | 0.00 | 77 | 1014.0 |
| 20260903170038 | 84 | 208 | 5.0 | 14.0 | 0.00 | 0.01 | 0.00 | 76 | 1013.9 |
| 20260903165517 | 84 | 227 | 3.0 | 12.0 | 0.00 | 0.01 | 0.00 | 76 | 1014.0 |
| 20260903165017 | 84 | 144 | 3.0 | 14.0 | 0.00 | 0.01 | 0.00 | 77 | 1013.9 |
| 20260903164546 | 84 | 191 | 5.0 | 14.0 | 0.00 | 0.01 | 0.00 | 78 | 1013.9 |
| 20260903164017 | 84 | 214 | 2.0 | 9.0 | 0.00 | 0.01 | 0.00 | 79 | 1013.9 |
| 20260903163518 | 83 | 199 | 4.0 | 10.0 | 0.00 | 0.01 | 0.00 | 79 | 1013.9 |
| 20260903163037 | 83 | 188 | 3.0 | 10.0 | 0.00 | 0.01 | 0.00 | 79 | 1013.9 |
| 20260903162520 | 83 | 178 | 4.0 | 10.0 | 0.00 | 0.01 | 0.00 | 80 | 1013.9 |
| 20260903162020 | 83 | 217 | 1.0 | 10.0 | 0.00 | 0.01 | 0.00 | 81 | 1013.8 |
| 20260903161536 | 83 | 206 | 4.0 | 11.0 | 0.00 | 0.01 | 0.00 | 81 | 1013.8 |
| 20260903161021 | 83 | 199 | 3.0 | 11.0 | 0.00 | 0.01 | 0.00 | 81 | 1013.8 |
| 20260903160517 | 83 | 214 | 3.0 | 12.0 | 0.00 | 0.01 | 0.00 | 81 | 1013.8 |
| 20260903160036 | 83 | 193 | 4.0 | 12.0 | 0.00 | 0.01 | 0.00 | 81 | 1013.8 |
| 20260903155522 | 83 | 214 | 3.0 | 12.0 | 0.00 | 0.01 | 0.00 | 81 | 1013.8 |
| 20260903155019 | 82 | 183 | 3.0 | 16.0 | 0.00 | 0.01 | 0.00 | 82 | 1013.7 |
| 20260903154546 | 82 | 175 | 4.0 | 16.0 | 0.00 | 0.01 | 0.00 | 82 | 1013.9 |
| 20260903154018 | 82 | 201 | 4.0 | 10.0 | 0.00 | 0.01 | 0.00 | 82 | 1013.8 |
| 20260903153518 | 82 | 164 | 3.0 | 9.0 | 0.00 | 0.01 | 0.00 | 82 | 1013.7 |
| 20260903153036 | 82 | 193 | 1.0 | 9.0 | 0.00 | 0.01 | 0.00 | 82 | 1013.7 |
| 20260903152518 | 82 | 168 | 2.0 | 10.0 | 0.00 | 0.01 | 0.00 | 82 | 1013.8 |
| 20260903152019 | 82 | 139 | 2.0 | 10.0 | 0.00 | 0.01 | 0.00 | 83 | 1013.8 |
| 20260903151537 | 82 | 179 | 3.0 | 10.0 | 0.00 | 0.01 | 0.00 | 82 | 1013.8 |
| 20260903151020 | 82 | 0 | 1.0 | 10.0 | 0.00 | 0.01 | 0.00 | 82 | 1013.8 |
| 20260903150518 | 82 | 0 | 1.0 | 7.0 | 0.00 | 0.01 | 0.00 | 82 | 1013.7 |
| 20260903150039 | 81 | 225 | 1.0 | 7.0 | 0.00 | 0.01 | 0.00 | 83 | 1013.7 |
| 20260903145517 | 81 | 0 | 1.0 | 9.0 | 0.00 | 0.01 | 0.00 | 83 | 1013.7 |
| 20260903145021 | 81 | 194 | 4.0 | 9.0 | 0.00 | 0.01 | 0.00 | 84 | 1013.8 |
| 20260903144543 | 81 | 0 | 1.0 | 9.0 | 0.00 | 0.01 | 0.00 | 84 | 1013.8 |
| 20260903144016 | 80 | 217 | 3.0 | 9.0 | 0.00 | 0.01 | 0.00 | 84 | 1013.8 |
| 20260903143517 | 81 | 168 | 0.0 | 6.0 | 0.00 | 0.01 | 0.00 | 84 | 1013.9 |
| 20260903143045 | 80 | 0 | 1.0 | 9.0 | 0.00 | 0.01 | 0.00 | 84 | 1013.8 |
| 20260903142518 | 80 | 172 | 3.0 | 9.0 | 0.00 | 0.01 | 0.00 | 84 | 1013.8 |
| 20260903142020 | 80 | 205 | 0.0 | 4.0 | 0.00 | 0.01 | 0.00 | 85 | 1013.8 |
| 20260903141537 | 80 | 0 | 0.0 | 7.0 | 0.00 | 0.01 | 0.00 | 85 | 1013.8 |
| 20260903141020 | 80 | 202 | 1.0 | 7.0 | 0.00 | 0.01 | 0.00 | 85 | 1013.9 |
| 20260903140518 | 79 | 207 | 2.0 | 7.0 | 0.00 | 0.01 | 0.00 | 86 | 1014.0 |
| 20260903140043 | 79 | 218 | 2.0 | 7.0 | 0.00 | 0.01 | 0.00 | 86 | 1014.0 |
| 20260903135519 | 79 | 0 | 1.0 | 8.0 | 0.00 | 0.01 | 0.00 | 86 | 1014.0 |
| 20260903135019 | 79 | 203 | 1.0 | 8.0 | 0.00 | 0.01 | 0.00 | 86 | 1014.0 |
| 20260903134537 | 79 | 0 | 1.0 | 5.0 | 0.00 | 0.01 | 0.00 | 85 | 1014.1 |
| 20260903134020 | 79 | 175 | 0.0 | 4.0 | 0.00 | 0.01 | 0.00 | 85 | 1014.0 |
| 20260903133521 | 79 | 168 | 0.0 | 8.0 | 0.00 | 0.01 | 0.00 | 85 | 1013.9 |
| 20260903133040 | 79 | 0 | 0.0 | 8.0 | 0.00 | 0.01 | 0.00 | 85 | 1013.8 |
| 20260903132520 | 79 | 0 | 0.0 | 6.0 | 0.00 | 0.01 | 0.00 | 85 | 1013.7 |
| 20260903132022 | 79 | 170 | 1.0 | 6.0 | 0.00 | 0.01 | 0.00 | 85 | 1013.7 |
| 20260903131538 | 79 | 130 | 0.0 | 4.0 | 0.00 | 0.01 | 0.00 | 86 | 1013.6 |
| 20260903131020 | 79 | 0 | 0.0 | 4.0 | 0.00 | 0.01 | 0.00 | 86 | 1013.5 |
| 20260903130519 | 79 | 0 | 0.0 | 6.0 | 0.00 | 0.01 | 0.00 | 86 | 1013.5 |
| 20260903130039 | 79 | 139 | 0.0 | 6.0 | 0.00 | 0.01 | 0.00 | 86 | 1013.5 |
| 20260903125517 | 79 | 0 | 0.0 | 6.0 | 0.00 | 0.01 | 0.00 | 85 | 1013.5 |
| 20260903125018 | 79 | 0 | 0.0 | 6.0 | 0.00 | 0.01 | 0.00 | 85 | 1013.5 |
| 20260903124538 | 79 | 0 | 0.0 | 5.0 | 0.00 | 0.01 | 0.00 | 85 | 1013.4 |
| 20260903124021 | 79 | 0 | 0.0 | 3.0 | 0.00 | 0.01 | 0.00 | 85 | 1013.4 |
| 20260903123520 | 79 | 156 | 0.0 | 3.0 | 0.00 | 0.01 | 0.00 | 85 | 1013.4 |
| 20260903123037 | 79 | 0 | 0.0 | 3.0 | 0.00 | 0.01 | 0.00 | 84 | 1013.5 |
| 20260903122520 | 79 | 0 | 0.0 | 3.0 | 0.00 | 0.01 | 0.00 | 84 | 1013.4 |
| 20260903122020 | 79 | 156 | 0.0 | 2.0 | 0.00 | 0.01 | 0.00 | 84 | 1013.4 |
| 20260903121537 | 79 | 0 | 0.0 | 7.0 | 0.00 | 0.01 | 0.00 | 85 | 1013.4 |
| 20260903121019 | 79 | 0 | 1.0 | 7.0 | 0.00 | 0.01 | 0.00 | 85 | 1013.3 |
| 20260903120519 | 78 | 197 | 0.0 | 8.0 | 0.00 | 0.01 | 0.00 | 85 | 1013.2 |
| 20260903120054 | 78 | 0 | 1.0 | 8.0 | 0.00 | 0.01 | 0.00 | 84 | 1013.2 |
| 20260903115515 | 78 | 169 | 0.0 | 6.0 | 0.00 | 0.01 | 0.00 | 84 | 1013.1 |
| 20260903115016 | 78 | 200 | 1.0 | 6.0 | 0.00 | 0.01 | 0.00 | 84 | 1012.9 |
| 20260903114553 | 78 | 0 | 0.0 | 7.0 | 0.00 | 0.01 | 0.00 | 84 | 1012.9 |
| 20260903114020 | 78 | 222 | 2.0 | 7.0 | 0.00 | 0.01 | 0.00 | 84 | 1012.9 |
| 20260903113520 | 79 | 195 | 1.0 | 6.0 | 0.00 | 0.01 | 0.00 | 84 | 1012.9 |
| 20260903113102 | 79 | 0 | 1.0 | 5.0 | 0.00 | 0.01 | 0.00 | 84 | 1013.0 |
| 20260903112518 | 79 | 0 | 0.0 | 5.0 | 0.00 | 0.01 | 0.00 | 84 | 1013.0 |
| 20260903112023 | 79 | 0 | 0.0 | 5.0 | 0.00 | 0.01 | 0.00 | 84 | 1013.1 |
| 20260903111536 | 79 | 216 | 0.0 | 4.0 | 0.00 | 0.01 | 0.00 | 84 | 1013.2 |
| 20260903111019 | 79 | 0 | 0.0 | 4.0 | 0.00 | 0.01 | 0.00 | 84 | 1013.2 |
| 20260903110518 | 79 | 0 | 0.0 | 4.0 | 0.00 | 0.01 | 0.00 | 84 | 1013.1 |
| 20260903110036 | 79 | 0 | 0.0 | 3.0 | 0.00 | 0.01 | 0.00 | 84 | 1013.0 |
| 20260903105519 | 79 | 0 | 0.0 | 8.0 | 0.00 | 0.01 | 0.00 | 84 | 1013.0 |
| 20260903105018 | 79 | 0 | 1.0 | 8.0 | 0.00 | 0.01 | 0.00 | 83 | 1012.9 |
| 20260903104554 | 79 | 174 | 1.0 | 7.0 | 0.00 | 0.01 | 0.00 | 83 | 1012.9 |
| 20260903104018 | 79 | 0 | 0.0 | 4.0 | 0.00 | 0.01 | 0.00 | 83 | 1012.8 |
| 20260903103517 | 79 | 0 | 0.0 | 4.0 | 0.00 | 0.01 | 0.00 | 83 | 1012.7 |
| 20260903103039 | 79 | 0 | 0.0 | 3.0 | 0.00 | 0.01 | 0.00 | 82 | 1012.7 |
| 20260903102521 | 79 | 0 | 0.0 | 3.0 | 0.00 | 0.01 | 0.00 | 82 | 1012.5 |
| 20260903102017 | 78 | 0 | 0.0 | 3.0 | 0.00 | 0.01 | 0.00 | 83 | 1012.5 |
| 20260903101537 | 79 | 204 | 0.0 | 1.0 | 0.00 | 0.01 | 0.00 | 83 | 1012.5 |
| 20260903101018 | 78 | 0 | 0.0 | 2.0 | 0.00 | 0.01 | 0.00 | 84 | 1012.6 |
| 20260903100518 | 78 | 0 | 0.0 | 2.0 | 0.00 | 0.01 | 0.00 | 84 | 1012.5 |
| 20260903100039 | 78 | 0 | 0.0 | 4.0 | 0.00 | 0.01 | 0.00 | 85 | 1012.5 |
| 20260903095518 | 78 | 0 | 0.0 | 4.0 | 0.00 | 0.01 | 0.00 | 86 | 1012.6 |
| 20260903095018 | 78 | 0 | 0.0 | 1.0 | 0.00 | 0.01 | 0.00 | 86 | 1012.6 |
| 20260903094549 | 78 | 0 | 0.0 | 0.0 | 0.00 | 0.01 | 0.00 | 87 | 1012.6 |
| 20260903094022 | 78 | 0 | 0.0 | 0.0 | 0.00 | 0.01 | 0.00 | 88 | 1012.7 |
| 20260903093521 | 78 | 0 | 0.0 | 0.0 | 0.00 | 0.01 | 0.00 | 87 | 1012.6 |
| 20260903093042 | 78 | 0 | 0.0 | 4.0 | 0.00 | 0.01 | 0.00 | 86 | 1012.7 |
| 20260903092519 | 78 | 0 | 0.0 | 5.0 | 0.00 | 0.01 | 0.00 | 86 | 1012.8 |
| 20260903092020 | 79 | 0 | 0.0 | 5.0 | 0.00 | 0.01 | 0.00 | 86 | 1012.9 |
| 20260903091548 | 79 | 0 | 0.0 | 0.0 | 0.00 | 0.01 | 0.00 | 86 | 1012.9 |
| 20260903091016 | 79 | 0 | 0.0 | 0.0 | 0.00 | 0.01 | 0.00 | 85 | 1012.9 |
| 20260903090517 | 79 | 0 | 0.0 | 2.0 | 0.00 | 0.01 | 0.00 | 84 | 1012.8 |
| 20260903090045 | 79 | 0 | 0.0 | 2.0 | 0.00 | 0.01 | 0.00 | 84 | 1012.7 |
| 20260903085517 | 79 | 0 | 0.0 | 2.0 | 0.00 | 0.01 | 0.00 | 84 | 1012.7 |
| 20260903085020 | 79 | 0 | 0.0 | 1.0 | 0.00 | 0.01 | 0.00 | 84 | 1012.7 |
| 20260903084536 | 79 | 0 | 0.0 | 1.0 | 0.00 | 0.01 | 0.00 | 84 | 1012.5 |
| 20260903084020 | 79 | 0 | 0.0 | 1.0 | 0.00 | 0.01 | 0.00 | 84 | 1012.5 |
| 20260903083524 | 79 | 0 | 0.0 | 2.0 | 0.00 | 0.01 | 0.00 | 83 | 1012.5 |
| 20260903083034 | 79 | 0 | 0.0 | 2.0 | 0.00 | 0.01 | 0.00 | 83 | 1012.5 |
| 20260903082517 | 80 | 0 | 0.0 | 1.0 | 0.00 | 0.01 | 0.00 | 83 | 1012.5 |
| 20260903082018 | 80 | 0 | 0.0 | 3.0 | 0.00 | 0.01 | 0.00 | 83 | 1012.5 |
| 20260903081538 | 80 | 0 | 0.0 | 3.0 | 0.00 | 0.01 | 0.00 | 83 | 1012.5 |
| 20260903081019 | 80 | 216 | 0.0 | 3.0 | 0.00 | 0.01 | 0.00 | 82 | 1012.5 |
| 20260903080517 | 80 | 0 | 0.0 | 3.0 | 0.00 | 0.01 | 0.00 | 82 | 1012.6 |
| 20260903080037 | 80 | 0 | 0.0 | 3.0 | 0.00 | 0.01 | 0.00 | 81 | 1012.5 |
| 20260903075518 | 80 | 135 | 0.0 | 2.0 | 0.00 | 0.01 | 0.00 | 81 | 1012.6 |
| 20260903075023 | 80 | 0 | 0.0 | 2.0 | 0.00 | 0.01 | 0.00 | 80 | 1012.5 |
| 20260903074539 | 81 | 0 | 0.0 | 2.0 | 0.00 | 0.01 | 0.00 | 79 | 1012.4 |
| 20260903074017 | 81 | 0 | 0.0 | 4.0 | 0.00 | 0.01 | 0.00 | 78 | 1012.3 |
| 20260903073521 | 81 | 0 | 0.0 | 4.0 | 0.00 | 0.01 | 0.00 | 78 | 1012.4 |
| 20260903073039 | 81 | 0 | 0.0 | 3.0 | 0.00 | 0.01 | 0.00 | 78 | 1012.5 |
| 20260903072520 | 81 | 139 | 0.0 | 3.0 | 0.00 | 0.01 | 0.00 | 78 | 1012.5 |
| 20260903072020 | 81 | 0 | 0.0 | 3.0 | 0.00 | 0.01 | 0.00 | 78 | 1012.5 |
| 20260903071552 | 81 | 0 | 0.0 | 3.0 | 0.00 | 0.01 | 0.00 | 78 | 1012.6 |
| 20260903071020 | 81 | 0 | 0.0 | 2.0 | 0.00 | 0.01 | 0.00 | 78 | 1012.6 |
| 20260903070517 | 81 | 0 | 0.0 | 2.0 | 0.00 | 0.01 | 0.00 | 79 | 1012.7 |
| 20260903070038 | 81 | 0 | 0.0 | 2.0 | 0.00 | 0.01 | 0.00 | 78 | 1012.6 |
| 20260903065520 | 81 | 0 | 0.0 | 1.0 | 0.00 | 0.01 | 0.00 | 79 | 1012.6 |
| 20260903065017 | 80 | 0 | 0.0 | 4.0 | 0.00 | 0.01 | 0.00 | 79 | 1012.6 |
| 20260903064537 | 80 | 0 | 0.0 | 4.0 | 0.00 | 0.01 | 0.00 | 79 | 1012.7 |
| 20260903064021 | 80 | 0 | 0.0 | 2.0 | 0.00 | 0.01 | 0.00 | 79 | 1012.7 |
| 20260903063519 | 80 | 0 | 0.0 | 2.0 | 0.00 | 0.01 | 0.00 | 79 | 1012.8 |
| 20260903063034 | 80 | 144 | 0.0 | 2.0 | 0.00 | 0.01 | 0.00 | 79 | 1012.7 |
| 20260903062521 | 80 | 0 | 0.0 | 5.0 | 0.00 | 0.01 | 0.00 | 78 | 1012.7 |
| 20260903062023 | 80 | 0 | 0.0 | 5.0 | 0.00 | 0.01 | 0.00 | 78 | 1012.7 |
| 20260903061535 | 80 | 93 | 0.0 | 5.0 | 0.00 | 0.01 | 0.00 | 78 | 1012.5 |
| 20260903061026 | 81 | 130 | 2.0 | 7.0 | 0.00 | 0.01 | 0.00 | 77 | 1012.6 |
| 20260903060519 | 81 | 112 | 2.0 | 7.0 | 0.00 | 0.01 | 0.00 | 77 | 1012.8 |
| 20260903060038 | 81 | 164 | 3.0 | 9.0 | 0.00 | 0.01 | 0.00 | 76 | 1012.8 |
| 20260903055520 | 81 | 123 | 2.0 | 9.0 | 0.00 | 0.01 | 0.00 | 75 | 1013.0 |
| 20260903055022 | 81 | 113 | 3.0 | 8.0 | 0.00 | 0.01 | 0.00 | 75 | 1012.9 |
| 20260903054537 | 81 | 135 | 1.0 | 8.0 | 0.00 | 0.01 | 0.00 | 74 | 1012.9 |
| 20260903054021 | 81 | 167 | 1.0 | 8.0 | 0.00 | 0.01 | 0.00 | 74 | 1012.9 |
| 20260903053518 | 82 | 101 | 3.0 | 8.0 | 0.00 | 0.01 | 0.00 | 74 | 1013.0 |
| 20260903053037 | 82 | 129 | 3.0 | 8.0 | 0.00 | 0.01 | 0.00 | 73 | 1013.1 |
| 20260903052519 | 82 | 128 | 1.0 | 8.0 | 0.00 | 0.01 | 0.00 | 73 | 1013.0 |
| 20260903052020 | 82 | 98 | 2.0 | 10.0 | 0.00 | 0.01 | 0.00 | 73 | 1013.2 |
| 20260903051557 | 82 | 141 | 3.0 | 10.0 | 0.00 | 0.01 | 0.00 | 73 | 1013.3 |
| 20260903051022 | 82 | 117 | 3.0 | 9.0 | 0.00 | 0.01 | 0.00 | 72 | 1013.2 |
| 20260903050519 | 82 | 121 | 3.0 | 8.0 | 0.00 | 0.01 | 0.00 | 72 | 1013.4 |
| 20260903050039 | 82 | 96 | 3.0 | 9.0 | 0.00 | 0.01 | 0.00 | 72 | 1013.3 |
| 20260903045518 | 82 | 99 | 3.0 | 9.0 | 0.00 | 0.01 | 0.01 | 71 | 1013.4 |
| 20260903045024 | 83 | 102 | 3.0 | 13.0 | 0.00 | 0.01 | 0.01 | 71 | 1013.5 |
| 20260903044542 | 83 | 114 | 3.0 | 13.0 | 0.00 | 0.01 | 0.01 | 70 | 1013.4 |
| 20260903044018 | 83 | 116 | 3.0 | 9.0 | 0.00 | 0.01 | 0.01 | 70 | 1013.3 |
| 20260903043519 | 83 | 83 | 2.0 | 9.0 | 0.00 | 0.01 | 0.01 | 69 | 1013.2 |
| 20260903043131 | 83 | 118 | 3.0 | 10.0 | 0.00 | 0.01 | 0.01 | 69 | 1013.2 |
| 20260903042519 | 83 | 120 | 4.0 | 10.0 | 0.00 | 0.01 | 0.01 | 69 | 1013.3 |
| 20260903042017 | 84 | 80 | 2.0 | 9.0 | 0.00 | 0.01 | 0.01 | 68 | 1013.4 |
| 20260903041538 | 84 | 107 | 4.0 | 8.0 | 0.00 | 0.01 | 0.01 | 68 | 1013.4 |
| 20260903041019 | 84 | 127 | 2.0 | 8.0 | 0.00 | 0.01 | 0.01 | 68 | 1013.5 |
| 20260903040519 | 84 | 114 | 3.0 | 8.0 | 0.00 | 0.01 | 0.01 | 68 | 1013.4 |
| 20260903040038 | 84 | 141 | 2.0 | 9.0 | 0.00 | 0.01 | 0.01 | 67 | 1013.5 |
| 20260903035518 | 84 | 127 | 3.0 | 9.0 | 0.00 | 0.01 | 0.01 | 67 | 1013.6 |
| 20260903035017 | 84 | 132 | 2.0 | 6.0 | 0.00 | 0.01 | 0.01 | 66 | 1013.6 |
| 20260903034542 | 85 | 128 | 1.0 | 6.0 | 0.00 | 0.01 | 0.01 | 66 | 1013.5 |
| 20260903034020 | 85 | 129 | 2.0 | 6.0 | 0.00 | 0.01 | 0.01 | 66 | 1013.6 |
| 20260903033518 | 85 | 130 | 2.0 | 6.0 | 0.00 | 0.01 | 0.01 | 66 | 1013.6 |
| 20260903033039 | 85 | 114 | 2.0 | 7.0 | 0.00 | 0.01 | 0.01 | 65 | 1013.6 |
| 20260903032517 | 85 | 98 | 3.0 | 8.0 | 0.00 | 0.01 | 0.01 | 65 | 1013.5 |
| 20260903032017 | 85 | 127 | 2.0 | 12.0 | 0.00 | 0.01 | 0.01 | 64 | 1013.5 |
| 20260903031536 | 85 | 166 | 3.0 | 12.0 | 0.00 | 0.01 | 0.01 | 64 | 1013.5 |
| 20260903031019 | 86 | 96 | 2.0 | 10.0 | 0.00 | 0.01 | 0.01 | 64 | 1013.5 |
| 20260903030518 | 86 | 169 | 2.0 | 7.0 | 0.00 | 0.01 | 0.01 | 63 | 1013.6 |
| 20260903030038 | 86 | 104 | 3.0 | 7.0 | 0.00 | 0.01 | 0.01 | 63 | 1013.5 |
| 20260903025518 | 86 | 135 | 2.0 | 7.0 | 0.00 | 0.01 | 0.01 | 62 | 1013.5 |
| 20260903025017 | 86 | 108 | 2.0 | 11.0 | 0.00 | 0.01 | 0.01 | 62 | 1013.5 |
| 20260903024538 | 87 | 153 | 3.0 | 11.0 | 0.00 | 0.01 | 0.01 | 62 | 1013.5 |
| 20260903024020 | 87 | 136 | 4.0 | 10.0 | 0.00 | 0.01 | 0.01 | 61 | 1013.5 |
| 20260903023519 | 87 | 191 | 3.0 | 8.0 | 0.00 | 0.01 | 0.01 | 61 | 1013.4 |
| 20260903023041 | 87 | 129 | 1.0 | 7.0 | 0.00 | 0.01 | 0.01 | 60 | 1013.3 |
| 20260903022517 | 88 | 127 | 3.0 | 9.0 | 0.00 | 0.01 | 0.01 | 60 | 1013.3 |
| 20260903022020 | 88 | 110 | 3.0 | 10.0 | 0.00 | 0.01 | 0.01 | 60 | 1013.0 |
| 20260903021539 | 88 | 135 | 4.0 | 10.0 | 0.00 | 0.01 | 0.01 | 59 | 1012.9 |
| 20260903021018 | 89 | 173 | 2.0 | 6.0 | 0.00 | 0.01 | 0.01 | 59 | 1013.0 |
| 20260903020518 | 89 | 131 | 2.0 | 7.0 | 0.00 | 0.01 | 0.01 | 58 | 1012.9 |
| 20260903020035 | 89 | 135 | 2.0 | 7.0 | 0.00 | 0.01 | 0.01 | 58 | 1012.7 |
| 20260903015522 | 89 | 121 | 1.0 | 8.0 | 0.00 | 0.01 | 0.01 | 57 | 1012.7 |
| 20260903015018 | 90 | 164 | 2.0 | 8.0 | 0.00 | 0.01 | 0.01 | 56 | 1012.7 |
| 20260903014541 | 90 | 127 | 1.0 | 7.0 | 0.00 | 0.01 | 0.01 | 55 | 1012.5 |
| 20260903014017 | 90 | 121 | 1.0 | 4.0 | 0.00 | 0.01 | 0.01 | 54 | 1012.4 |
| 20260903013523 | 90 | 171 | 1.0 | 9.0 | 0.00 | 0.01 | 0.01 | 55 | 1012.3 |
| 20260903013045 | 90 | 117 | 2.0 | 9.0 | 0.00 | 0.01 | 0.01 | 54 | 1012.2 |
| 20260903012518 | 90 | 0 | 2.0 | 7.0 | 0.00 | 0.01 | 0.01 | 55 | 1012.1 |
| 20260903012019 | 90 | 116 | 2.0 | 6.0 | 0.00 | 0.01 | 0.01 | 55 | 1012.1 |
| 20260903011537 | 90 | 198 | 1.0 | 5.0 | 0.00 | 0.01 | 0.01 | 58 | 1012.1 |
| 20260903011019 | 91 | 134 | 1.0 | 5.0 | 0.00 | 0.01 | 0.01 | 56 | 1012.0 |
| 20260903010523 | 91 | 121 | 1.0 | 5.0 | 0.00 | 0.01 | 0.01 | 54 | 1012.0 |
| 20260903010040 | 91 | 150 | 1.0 | 5.0 | 0.00 | 0.01 | 0.01 | 54 | 1011.9 |
| 20260903005519 | 91 | 112 | 2.0 | 5.0 | 0.00 | 0.01 | 0.01 | 54 | 1011.8 |
| 20260903005019 | 92 | 0 | 0.0 | 7.0 | 0.00 | 0.01 | 0.01 | 54 | 1011.9 |
| 20260903004537 | 92 | 105 | 0.0 | 7.0 | 0.00 | 0.01 | 0.01 | 55 | 1011.9 |
| 20260903004017 | 92 | 131 | 1.0 | 6.0 | 0.00 | 0.01 | 0.01 | 55 | 1011.9 |
| 20260903003519 | 92 | 147 | 1.0 | 6.0 | 0.00 | 0.01 | 0.01 | 55 | 1012.0 |
| 20260903003037 | 92 | 120 | 1.0 | 6.0 | 0.00 | 0.01 | 0.01 | 56 | 1012.0 |
| 20260903002521 | 92 | 143 | 1.0 | 10.0 | 0.00 | 0.01 | 0.01 | 57 | 1011.9 |
| 20260903002020 | 92 | 112 | 2.0 | 10.0 | 0.01 | 0.01 | 0.01 | 57 | 1012.0 |
| 20260903001539 | 91 | 187 | 0.0 | 4.0 | 0.01 | 0.01 | 0.01 | 58 | 1011.9 |
| 20260903001018 | 91 | 0 | 0.0 | 4.0 | 0.01 | 0.01 | 0.01 | 59 | 1011.8 |
| 20260903000517 | 91 | 123 | 1.0 | 4.0 | 0.01 | 0.01 | 0.01 | 59 | 1011.8 |
| 20260903000038 | 91 | 123 | 1.0 | 4.0 | 0.01 | 0.01 | 0.01 | 60 | 1011.7 |
| 20260902235519 | 91 | 123 | 1.0 | 4.0 | 0.01 | 0.01 | 0.01 | 60 | 1011.9 |
| 20260902235022 | 90 | 138 | 1.0 | 4.0 | 0.01 | 0.01 | 0.01 | 63 | 1011.9 |
| 20260902234543 | 89 | 146 | 1.0 | 3.0 | 0.01 | 0.01 | 0.01 | 67 | 1011.9 |
| 20260902234017 | 88 | 110 | 1.0 | 3.0 | 0.01 | 0.01 | 0.01 | 70 | 1012.0 |
| 20260902233521 | 87 | 0 | 1.0 | 2.0 | 0.01 | 0.01 | 0.01 | 75 | 1012.0 |
| 20260902233037 | 87 | 0 | 0.0 | 1.0 | 0.01 | 0.01 | 0.01 | 74 | 1012.0 |
| 20260902232518 | 88 | 0 | 0.0 | 4.0 | 0.01 | 0.01 | 0.01 | 72 | 1011.9 |
| 20260902232018 | 92 | 0 | 1.0 | 11.0 | 0.00 | 0.00 | 0.00 | 64 | 1011.9 |
| 20260902231536 | 95 | 146 | 5.0 | 11.0 | 0.00 | 0.00 | 0.00 | 51 | 1012.0 |
| 20260902231020 | 96 | 135 | 4.0 | 10.0 | 0.00 | 0.00 | 0.00 | 46 | 1012.0 |
| 20260902230518 | 98 | 124 | 3.0 | 8.0 | 0.00 | 0.00 | 0.00 | 44 | 1011.9 |
| 20260902230036 | 99 | 91 | 2.0 | 8.0 | 0.00 | 0.00 | 0.00 | 43 | 1011.8 |
| 20260902225520 | 99 | 123 | 3.0 | 8.0 | 0.00 | 0.00 | 0.00 | 42 | 1011.9 |
| 20260902225019 | 99 | 64 | 2.0 | 8.0 | 0.00 | 0.00 | 0.00 | 41 | 1011.7 |
| 20260902224544 | 99 | 76 | 2.0 | 8.0 | 0.00 | 0.00 | 0.00 | 41 | 1011.5 |
| 20260902224019 | 99 | 110 | 3.0 | 7.0 | 0.00 | 0.00 | 0.00 | 40 | 1011.4 |
| 20260902223521 | 100 | 358 | 1.0 | 7.0 | 0.00 | 0.00 | 0.00 | 40 | 1011.5 |
| 20260902223036 | 101 | 108 | 2.0 | 7.0 | 0.00 | 0.00 | 0.00 | 39 | 1011.5 |
| 20260902222517 | 100 | 56 | 1.0 | 10.0 | 0.00 | 0.00 | 0.00 | 39 | 1011.5 |
| 20260902222023 | 101 | 94 | 3.0 | 10.0 | 0.00 | 0.00 | 0.00 | 38 | 1011.6 |
| 20260902221537 | 101 | 0 | 1.0 | 6.0 | 0.00 | 0.00 | 0.00 | 38 | 1011.6 |
| 20260902221020 | 102 | 56 | 1.0 | 9.0 | 0.00 | 0.00 | 0.00 | 37 | 1011.7 |
| 20260902220520 | 103 | 54 | 3.0 | 9.0 | 0.00 | 0.00 | 0.00 | 37 | 1011.7 |
| 20260902220040 | 102 | 53 | 3.0 | 5.0 | 0.00 | 0.00 | 0.00 | 37 | 1011.7 |
| 20260902215525 | 102 | 54 | 1.0 | 5.0 | 0.00 | 0.00 | 0.00 | 37 | 1011.7 |
| 20260902215019 | 103 | 53 | 2.0 | 6.0 | 0.00 | 0.00 | 0.00 | 37 | 1011.8 |
| 20260902214536 | 102 | 6 | 2.0 | 6.0 | 0.00 | 0.00 | 0.00 | 38 | 1011.8 |
| 20260902214017 | 101 | 82 | 2.0 | 8.0 | 0.00 | 0.00 | 0.00 | 39 | 1011.9 |
| 20260902213516 | 102 | 118 | 3.0 | 8.0 | 0.00 | 0.00 | 0.00 | 37 | 1012.0 |
| 20260902213036 | 101 | 153 | 2.0 | 6.0 | 0.00 | 0.00 | 0.00 | 38 | 1012.1 |
| 20260902212518 | 102 | 4 | 3.0 | 7.0 | 0.00 | 0.00 | 0.00 | 38 | 1012.0 |
| 20260902212020 | 102 | 0 | 1.0 | 7.0 | 0.00 | 0.00 | 0.00 | 39 | 1012.1 |
| 20260902211539 | 102 | 52 | 2.0 | 6.0 | 0.00 | 0.00 | 0.00 | 38 | 1012.2 |
| 20260902211020 | 101 | 89 | 2.0 | 10.0 | 0.00 | 0.00 | 0.00 | 39 | 1012.2 |
| 20260902210520 | 100 | 343 | 3.0 | 10.0 | 0.00 | 0.00 | 0.00 | 40 | 1012.3 |
| 20260902210035 | 101 | 110 | 2.0 | 8.0 | 0.00 | 0.00 | 0.00 | 39 | 1012.4 |
| 20260902205519 | 101 | 66 | 3.0 | 8.0 | 0.00 | 0.00 | 0.00 | 39 | 1012.6 |
| 20260902205017 | 101 | 131 | 2.0 | 5.0 | 0.00 | 0.00 | 0.00 | 40 | 1012.7 |
| 20260902204540 | 101 | 116 | 0.0 | 9.0 | 0.00 | 0.00 | 0.00 | 39 | 1012.7 |
| 20260902204018 | 101 | 0 | 2.0 | 9.0 | 0.00 | 0.00 | 0.00 | 39 | 1012.8 |
| 20260902203517 | 101 | 109 | 2.0 | 9.0 | 0.00 | 0.00 | 0.00 | 40 | 1012.8 |
| 20260902203038 | 100 | 98 | 2.0 | 9.0 | 0.00 | 0.00 | 0.00 | 41 | 1012.8 |
| 20260902202518 | 100 | 110 | 3.0 | 7.0 | 0.00 | 0.00 | 0.00 | 41 | 1012.9 |
| 20260902202020 | 100 | 93 | 1.0 | 4.0 | 0.00 | 0.00 | 0.00 | 42 | 1012.9 |
| 20260902201544 | 99 | 0 | 1.0 | 9.0 | 0.00 | 0.00 | 0.00 | 42 | 1013.0 |
| 20260902201020 | 100 | 62 | 2.0 | 12.0 | 0.00 | 0.00 | 0.00 | 41 | 1013.2 |
| 20260902200518 | 100 | 98 | 2.0 | 12.0 | 0.00 | 0.00 | 0.00 | 42 | 1013.2 |
| 20260902200051 | 98 | 42 | 2.0 | 8.0 | 0.00 | 0.00 | 0.00 | 43 | 1013.3 |
| 20260902195520 | 99 | 114 | 2.0 | 7.0 | 0.00 | 0.00 | 0.00 | 42 | 1013.4 |
| 20260902195019 | 99 | 78 | 2.0 | 7.0 | 0.00 | 0.00 | 0.00 | 42 | 1013.4 |
| 20260902194538 | 99 | 164 | 1.0 | 7.0 | 0.00 | 0.00 | 0.00 | 42 | 1013.5 |
| 20260902194018 | 98 | 91 | 1.0 | 6.0 | 0.00 | 0.00 | 0.00 | 42 | 1013.6 |
| 20260902193518 | 98 | 288 | 2.0 | 7.0 | 0.00 | 0.00 | 0.00 | 42 | 1013.6 |
| 20260902193037 | 98 | 0 | 2.0 | 7.0 | 0.00 | 0.00 | 0.00 | 43 | 1013.7 |
| 20260902192518 | 98 | 0 | 1.0 | 6.0 | 0.00 | 0.00 | 0.00 | 44 | 1013.8 |
| 20260902192019 | 97 | 25 | 2.0 | 6.0 | 0.00 | 0.00 | 0.00 | 45 | 1013.9 |
| 20260902191541 | 97 | 358 | 1.0 | 5.0 | 0.00 | 0.00 | 0.00 | 46 | 1014.0 |
| 20260902191020 | 97 | 97 | 1.0 | 6.0 | 0.00 | 0.00 | 0.00 | 46 | 1014.0 |
| 20260902190519 | 97 | 6 | 1.0 | 8.0 | 0.00 | 0.00 | 0.00 | 47 | 1014.1 |
| 20260902190057 | 97 | 54 | 3.0 | 8.0 | 0.00 | 0.00 | 0.00 | 48 | 1014.0 |
| 20260902185517 | 96 | 0 | 0.0 | 5.0 | 0.00 | 0.00 | 0.00 | 48 | 1014.1 |
| 20260902185019 | 96 | 0 | 2.0 | 5.0 | 0.00 | 0.00 | 0.00 | 48 | 1014.2 |
| 20260902184540 | 95 | 85 | 1.0 | 7.0 | 0.00 | 0.00 | 0.00 | 48 | 1014.2 |
| 20260902184018 | 96 | 0 | 3.0 | 7.0 | 0.00 | 0.00 | 0.00 | 48 | 1014.3 |
| 20260902183524 | 96 | 29 | 2.0 | 6.0 | 0.00 | 0.00 | 0.00 | 49 | 1014.4 |
| 20260902183037 | 95 | 0 | 0.0 | 6.0 | 0.00 | 0.00 | 0.00 | 48 | 1014.4 |
| 20260902182517 | 95 | 73 | 0.0 | 4.0 | 0.00 | 0.00 | 0.00 | 50 | 1014.6 |
| 20260902182024 | 96 | 0 | 0.0 | 4.0 | 0.00 | 0.00 | 0.00 | 49 | 1014.6 |
| 20260902181536 | 96 | 35 | 1.0 | 6.0 | 0.00 | 0.00 | 0.00 | 49 | 1014.9 |
| 20260902181022 | 96 | 90 | 1.0 | 8.0 | 0.00 | 0.00 | 0.00 | 48 | 1015.1 |
| 20260902180520 | 95 | 129 | 2.0 | 8.0 | 0.00 | 0.00 | 0.00 | 48 | 1015.2 |
| 20260902180037 | 95 | 102 | 2.0 | 7.0 | 0.00 | 0.00 | 0.00 | 49 | 1015.2 |